Tracking 18980 objects as of 22-Feb-2018
HD Live streaming from Space Station
objects crossing your sky now

FENGYUN 1C DEB

Track FENGYUN 1C DEB now!
10-day predictions


NORAD ID: 32113
Int'l Code: 1999-025CRF
Perigee: 756.3 km
Apogee: 1,124.4 km
Inclination: 99.3 °
Period: 103.7 minutes
Semi major axis: 7311 km
RCS: 0.0112 m2 (small)
Launch date: May 10, 1999
Source: People's Republic of China (PRC)
Launch site: Taiyaun Space Center, China (TSC)

Note: This is SATELLITE DEBRIS
aabbcc
Your satellite tracking list
Your tracking list is empty




NASA's NSSDC Master Catalog

Two Line Element Set (TLE):
1 32113U 99025CRF 18051.33022740  .00000284  00000-0  21139-3 0  9994
2 32113  99.3230  83.3231 0251730  29.4859 332.0231 13.88705879535826
Source of the keplerian elements: AFSPC